QPF
0.01 0.01 0.02 0.01 0.01 0.02 0.02 0.02 0.02 0.02 0.03 0.02 0.01 0.02 0.03 0.03 0.02 0.01 0.01 0.03 0.04 0.04 0.03 0.04 0.03 0.02 0.01 0.01 0.01 0.01 0.01 0.01 0.01 0.01 0.01 0.01 0.01 0.02 0.02 0.02 0.02 0.02 0.02
0.02 0.02 0.04 0.02 0.01 0.01 0.01 0.02 0.03 0.03 0.02 0.02 0.02 0.01 0.02 0.03 0.02 0.01 0.01 0.03 0.06 0.06 0.05 0.05 0.04 0.03 0.03 0.02 0.01 0.01 0.01 0.01 0.01 0.01 0.01 0.02 0.01 0.02 0.02 0.01 0.01 0.02 0.02
0.03 0.02 0.03 0.04 0.03 0.02 0.02 0.02 0.03 0.04 0.03 0.02 0.02 0.03 0.03 0.03 0.03 0.02 0.01 0.01 0.03 0.06 0.07 0.07 0.06 0.06 0.06 0.05 0.04 0.02 0.01 0.01 0.01 0.01 0.01 0.01 0.01 0.01 0.01 0.02 0.02 0.02 0.02
0.05 0.04 0.03 0.03 0.03 0.05 0.04 0.03 0.04 0.05 0.04 0.04 0.04 0.05 0.04 0.05 0.05 0.04 0.02 0.01 0.03 0.03 0.04 0.06 0.08 0.08 0.10 0.09 0.09 0.06 0.04 0.03 0.02 0.02 0.02 0.02 0.01 0.01 0.01 0.01 0.01 0.01 0.01
0.06 0.07 0.05 0.05 0.05 0.06 0.07 0.05 0.04 0.05 0.04 0.03 0.03 0.03 0.03 0.05 0.04 0.03 0.03 0.03 0.03 0.03 0.03 0.05 0.07 0.09 0.08 0.10 0.12 0.12 0.10 0.08 0.06 0.05 0.05 0.05 0.04 0.04 0.03 0.02 0.02 0.02 0.02
0.05 0.07 0.08 0.07 0.05 0.06 0.08 0.08 0.05 0.04 0.04 0.03 0.03 0.03 0.03 0.04 0.04 0.04 0.04 0.03 0.03 0.04 0.04 0.05 0.07 0.07 0.09 0.11 0.10 0.11 0.13 0.13 0.11 0.09 0.08 0.07 0.07 0.06 0.06 0.05 0.05 0.05 0.04
0.04 0.05 0.06 0.07 0.06 0.06 0.06 0.07 0.06 0.04 0.03 0.04 0.03 0.02 0.02 0.02 0.03 0.04 0.04 0.05 0.05 0.06 0.05 0.05 0.05 0.05 0.05 0.05 0.07 0.08 0.11 0.14 0.13 0.10 0.08 0.08 0.07 0.06 0.05 0.05 0.06 0.06 0.05
0.05 0.06 0.07 0.08 0.07 0.05 0.04 0.05 0.06 0.05 0.03 0.03 0.03 0.04 0.04 0.03 0.02 0.02 0.02 0.03 0.04 0.04 0.04 0.06 0.05 0.05 0.05 0.05 0.06 0.07 0.10 0.13 0.15 0.13 0.11 0.09 0.08 0.07 0.06 0.05 0.06 0.06 0.06
0.05 0.06 0.08 0.07 0.07 0.07 0.05 0.03 0.04 0.05 0.04 0.03 0.04 0.05 0.02 0.02 0.02 0.01 0.02 0.02 0.02 0.02 0.02 0.04 0.05 0.05 0.05 0.05 0.04 0.06 0.08 0.09 0.11 0.12 0.12 0.13 0.10 0.08 0.07 0.06 0.06 0.04 0.04
0.04 0.06 0.09 0.08 0.07 0.06 0.04 0.04 0.04 0.04 0.04 0.03 0.03 0.03 0.02 0.02 0.02 0.01 0.02 0.02 0.02 0.02 0.02 0.02 0.04 0.05 0.05 0.05 0.05 0.05 0.05 0.03 0.05 0.08 0.10 0.12 0.14 0.14 0.12 0.10 0.09 0.08 0.07
0.05 0.06 0.08 0.08 0.06 0.05 0.04 0.05 0.05 0.04 0.05 0.04 0.05 0.05 0.05 0.04 0.04 0.03 0.03 0.02 0.01 0.01 0.02 0.02 0.03 0.04 0.03 0.04 0.04 0.05 0.06 0.06 0.05 0.05 0.06 0.09 0.12 0.13 0.14 0.13 0.12 0.12 0.11
0.05 0.05 0.05 0.05 0.05 0.04 0.04 0.04 0.05 0.05 0.06 0.05 0.05 0.05 0.06 0.05 0.04 0.05 0.05 0.05 0.03 0.02 0.02 0.02 0.02 0.03 0.04 0.05 0.04 0.05 0.06 0.06 0.05 0.06 0.06 0.08 0.08 0.08 0.08 0.11 0.13 0.14 0.14
0.04 0.05 0.05 0.04 0.04 0.04 0.04 0.05 0.06 0.06 0.05 0.04 0.03 0.03 0.03 0.03 0.02 0.02 0.03 0.04 0.03 0.02 0.01 0.01 0.01 0.01 0.03 0.03 0.03 0.02 0.02 0.03 0.04 0.04 0.05 0.05 0.05 0.06 0.08 0.11 0.14 0.18 0.21
0.04 0.04 0.03 0.05 0.06 0.04 0.03 0.05 0.07 0.06 0.05 0.05 0.05 0.04 0.03 0.02 0.02 0.03 0.03 0.03 0.02 0.01 0.00 0.01 0.01 0.01 0.02 0.03 0.03 0.03 0.03 0.04 0.04 0.04 0.03 0.03 0.04 0.04 0.05 0.07 0.12 0.16 0.19
0.03 0.03 0.03 0.04 0.04 0.05 0.05 0.06 0.08 0.09 0.07 0.05 0.05 0.05 0.04 0.03 0.03 0.03 0.03 0.03 0.03 0.02 0.01 0.02 0.02 0.01 0.01 0.02 0.02 0.02 0.02 0.04 0.05 0.04 0.03 0.03 0.03 0.04 0.05 0.08 0.11 0.13 0.14
0.05 0.04 0.04 0.06 0.08 0.08 0.09 0.10 0.10 0.11 0.09 0.06 0.04 0.04 0.04 0.04 0.04 0.04 0.04 0.03 0.03 0.02 0.02 0.02 0.01 0.01 0.01 0.02 0.03 0.03 0.03 0.03 0.03 0.04 0.05 0.05 0.06 0.06 0.07 0.09 0.10 0.09 0.09
0.05 0.05 0.05 0.05 0.06 0.07 0.07 0.07 0.07 0.07 0.06 0.05 0.05 0.04 0.04 0.04 0.04 0.04 0.04 0.04 0.03 0.03 0.02 0.01 0.01 0.01 0.02 0.03 0.03 0.03 0.03 0.03 0.03 0.03 0.04 0.05 0.08 0.09 0.09 0.08 0.08 0.07 0.05
0.03 0.04 0.04 0.04 0.04 0.05 0.05 0.05 0.05 0.04 0.05 0.05 0.05 0.05 0.05 0.05 0.06 0.06 0.06 0.05 0.05 0.05 0.04 0.03 0.03 0.03 0.03 0.03 0.02 0.02 0.03 0.03 0.03 0.03 0.03 0.05 0.06 0.06 0.06 0.05 0.04 0.04 0.03
0.02 0.03 0.03 0.02 0.03 0.04 0.04 0.04 0.05 0.05 0.05 0.05 0.05 0.06 0.07 0.07 0.07 0.08 0.09 0.09 0.09 0.08 0.08 0.06 0.05 0.04 0.03 0.02 0.02 0.02 0.03 0.03 0.03 0.04 0.05 0.04 0.05 0.04 0.04 0.04 0.05 0.05 0.04
0.03 0.03 0.02 0.02 0.03 0.03 0.04 0.04 0.04 0.04 0.04 0.04 0.04 0.03 0.04 0.05 0.05 0.06 0.07 0.07 0.08 0.07 0.08 0.08 0.08 0.06 0.05 0.04 0.03 0.03 0.03 0.03 0.03 0.05 0.06 0.06 0.05 0.04 0.03 0.03 0.04 0.04 0.04
0.02 0.03 0.03 0.03 0.03 0.04 0.03 0.03 0.04 0.03 0.03 0.04 0.05 0.06 0.06 0.06 0.07 0.07 0.06 0.05 0.06 0.07 0.08 0.08 0.08 0.07 0.06 0.06 0.05 0.05 0.05 0.06 0.05 0.05 0.06 0.04 0.04 0.03 0.02 0.02 0.02 0.01 0.01
0.02 0.03 0.04 0.05 0.05 0.04 0.04 0.03 0.04 0.03 0.04 0.04 0.05 0.07 0.10 0.09 0.09 0.08 0.06 0.05 0.05 0.04 0.05 0.05 0.05 0.06 0.08 0.09 0.08 0.07 0.07 0.06 0.05 0.03 0.03 0.03 0.02 0.02 0.02 0.02 0.02 0.02 0.01
0.03 0.03 0.04 0.06 0.05 0.04 0.04 0.04 0.04 0.04 0.03 0.03 0.04 0.04 0.07 0.09 0.08 0.06 0.06 0.05 0.04 0.05 0.05 0.05 0.06 0.06 0.07 0.07 0.07 0.07 0.06 0.04 0.03 0.02 0.02 0.03 0.02 0.01 0.02 0.02 0.03 0.02 0.01
0.02 0.03 0.04 0.05 0.03 0.03 0.04 0.04 0.05 0.04 0.03 0.03 0.03 0.03 0.04 0.05 0.06 0.07 0.06 0.04 0.04 0.06 0.07 0.06 0.06 0.06 0.06 0.06 0.06 0.05 0.04 0.03 0.02 0.02 0.02 0.02 0.02 0.01 0.01 0.02 0.02 0.02 0.02
0.05 0.04 0.04 0.03 0.02 0.03 0.04 0.04 0.05 0.05 0.04 0.05 0.05 0.05 0.04 0.03 0.05 0.06 0.05 0.04 0.04 0.05 0.07 0.06 0.06 0.06 0.06 0.05 0.04 0.03 0.03 0.02 0.03 0.03 0.03 0.03 0.02 0.01 0.01 0.01 0.02 0.04 0.04
0.05 0.04 0.04 0.04 0.03 0.03 0.04 0.04 0.05 0.06 0.07 0.09 0.09 0.08 0.06 0.04 0.05 0.05 0.04 0.05 0.05 0.07 0.08 0.09 0.09 0.07 0.06 0.05 0.05 0.04 0.05 0.05 0.04 0.03 0.03 0.03 0.02 0.02 0.02 0.01 0.02 0.02 0.02
MSLP
1018.69 1018.76 1018.79 1018.81 1018.83 1018.88 1018.96 1019.08 1019.21 1019.34 1019.43 1019.47 1019.46 1019.40 1019.32 1019.25 1019.22 1019.25 1019.36 1019.54 1019.76 1020.01 1020.26 1020.48 1020.66 1020.80 1020.92 1021.01 1021.11 1021.22 1021.36 1021.51 1021.69 1021.87 1022.05 1022.22 1022.38 1022.52 1022.66 1022.78 1022.91 1023.03 1023.15
1018.92 1018.99 1019.02 1019.03 1019.05 1019.09 1019.16 1019.26 1019.36 1019.46 1019.53 1019.54 1019.50 1019.41 1019.29 1019.18 1019.09 1019.07 1019.13 1019.26 1019.45 1019.68 1019.92 1020.15 1020.35 1020.52 1020.65 1020.75 1020.84 1020.94 1021.06 1021.20 1021.36 1021.55 1021.75 1021.96 1022.16 1022.34 1022.52 1022.67 1022.81 1022.94 1023.05
1018.97 1019.05 1019.10 1019.14 1019.18 1019.24 1019.31 1019.41 1019.50 1019.59 1019.64 1019.64 1019.58 1019.47 1019.33 1019.18 1019.04 1018.95 1018.93 1018.98 1019.10 1019.27 1019.47 1019.69 1019.88 1020.05 1020.19 1020.30 1020.39 1020.48 1020.58 1020.70 1020.85 1021.04 1021.26 1021.49 1021.73 1021.97 1022.19 1022.39 1022.56 1022.71 1022.83
1018.85 1018.94 1019.03 1019.11 1019.19 1019.28 1019.39 1019.50 1019.60 1019.69 1019.74 1019.74 1019.68 1019.57 1019.42 1019.23 1019.04 1018.88 1018.77 1018.72 1018.73 1018.81 1018.94 1019.10 1019.27 1019.43 1019.56 1019.67 1019.76 1019.84 1019.92 1020.02 1020.16 1020.34 1020.56 1020.82 1021.10 1021.39 1021.66 1021.91 1022.13 1022.30 1022.45
1018.59 1018.71 1018.84 1018.97 1019.10 1019.23 1019.37 1019.50 1019.62 1019.72 1019.78 1019.80 1019.76 1019.66 1019.51 1019.31 1019.08 1018.85 1018.65 1018.48 1018.38 1018.35 1018.38 1018.46 1018.58 1018.71 1018.83 1018.93 1019.01 1019.07 1019.14 1019.22 1019.33 1019.50 1019.72 1019.98 1020.29 1020.61 1020.93 1021.22 1021.48 1021.70 1021.89
1018.29 1018.42 1018.58 1018.75 1018.93 1019.10 1019.27 1019.42 1019.56 1019.67 1019.75 1019.79 1019.78 1019.71 1019.58 1019.39 1019.14 1018.86 1018.58 1018.31 1018.09 1017.94 1017.86 1017.85 1017.90 1017.98 1018.07 1018.16 1018.23 1018.28 1018.32 1018.37 1018.46 1018.59 1018.79 1019.05 1019.35 1019.69 1020.03 1020.36 1020.66 1020.92 1021.14
1018.00 1018.13 1018.31 1018.51 1018.72 1018.93 1019.12 1019.28 1019.42 1019.54 1019.64 1019.71 1019.74 1019.71 1019.62 1019.45 1019.21 1018.91 1018.57 1018.23 1017.91 1017.66 1017.47 1017.37 1017.34 1017.36 1017.42 1017.47 1017.52 1017.55 1017.56 1017.58 1017.63 1017.72 1017.87 1018.09 1018.37 1018.69 1019.03 1019.37 1019.69 1019.98 1020.23
1017.78 1017.90 1018.07 1018.29 1018.52 1018.74 1018.93 1019.10 1019.24 1019.36 1019.46 1019.55 1019.62 1019.64 1019.61 1019.49 1019.29 1019.00 1018.65 1018.26 1017.88 1017.54 1017.27 1017.08 1016.97 1016.93 1016.94 1016.96 1016.97 1016.97 1016.95 1016.92 1016.92 1016.95 1017.05 1017.21 1017.43 1017.70 1018.01 1018.33 1018.64 1018.93 1019.20
1017.62 1017.70 1017.87 1018.08 1018.31 1018.53 1018.72 1018.88 1019.00 1019.12 1019.22 1019.33 1019.44 1019.52 1019.55 1019.51 1019.37 1019.13 1018.80 1018.41 1018.00 1017.61 1017.27 1017.01 1016.84 1016.73 1016.68 1016.65 1016.62 1016.58 1016.51 1016.43 1016.37 1016.34 1016.35 1016.43 1016.58 1016.78 1017.03 1017.29 1017.57 1017.84 1018.10
1017.45 1017.51 1017.65 1017.86 1018.08 1018.30 1018.48 1018.62 1018.73 1018.83 1018.94 1019.07 1019.21 1019.35 1019.45 1019.49 1019.43 1019.27 1019.00 1018.64 1018.24 1017.84 1017.46 1017.15 1016.91 1016.75 1016.64 1016.55 1016.46 1016.37 1016.25 1016.11 1015.98 1015.87 1015.80 1015.80 1015.85 1015.96 1016.12 1016.31 1016.53 1016.76 1017.00
1017.20 1017.23 1017.36 1017.55 1017.78 1017.99 1018.17 1018.31 1018.42 1018.52 1018.63 1018.77 1018.94 1019.13 1019.30 1019.42 1019.46 1019.38 1019.19 1018.90 1018.54 1018.14 1017.76 1017.42 1017.14 1016.91 1016.74 1016.59 1016.44 1016.28 1016.10 1015.90 1015.70 1015.52 1015.37 1015.28 1015.24 1015.25 1015.32 1015.43 1015.57 1015.74 1015.93
1016.80 1016.80 1016.92 1017.12 1017.36 1017.59 1017.79 1017.94 1018.06 1018.17 1018.29 1018.45 1018.64 1018.87 1019.10 1019.30 1019.42 1019.43 1019.33 1019.11 1018.81 1018.46 1018.09 1017.73 1017.42 1017.14 1016.91 1016.69 1016.48 1016.26 1016.01 1015.75 1015.49 1015.24 1015.03 1014.85 1014.73 1014.65 1014.63 1014.65 1014.71 1014.81 1014.95
1016.22 1016.22 1016.34 1016.56 1016.82 1017.09 1017.33 1017.52 1017.67 1017.80 1017.94 1018.11 1018.33 1018.59 1018.86 1019.11 1019.30 1019.39 1019.37 1019.24 1019.01 1018.71 1018.37 1018.02 1017.68 1017.37 1017.08 1016.81 1016.53 1016.25 1015.94 1015.63 1015.32 1015.02 1014.74 1014.50 1014.31 1014.16 1014.06 1014.00 1013.98 1014.01 1014.09
1015.50 1015.51 1015.66 1015.90 1016.21 1016.53 1016.83 1017.07 1017.27 1017.45 1017.61 1017.81 1018.03 1018.30 1018.59 1018.87 1019.10 1019.25 1019.30 1019.25 1019.09 1018.84 1018.54 1018.22 1017.88 1017.54 1017.22 1016.89 1016.56 1016.22 1015.88 1015.52 1015.17 1014.82 1014.51 1014.23 1013.98 1013.78 1013.62 1013.49 1013.41 1013.37 1013.37
1014.76 1014.78 1014.95 1015.25 1015.61 1015.99 1016.36 1016.67 1016.93 1017.15 1017.35 1017.55 1017.78 1018.04 1018.32 1018.60 1018.85 1019.04 1019.14 1019.14 1019.04 1018.86 1018.61 1018.32 1018.00 1017.66 1017.31 1016.95 1016.58 1016.21 1015.82 1015.43 1015.05 1014.69 1014.35 1014.04 1013.76 1013.52 1013.31 1013.14 1013.00 1012.89 1012.83
1014.12 1014.16 1014.36 1014.70 1015.11 1015.56 1015.99 1016.37 1016.69 1016.95 1017.17 1017.38 1017.60 1017.83 1018.09 1018.34 1018.58 1018.77 1018.89 1018.94 1018.90 1018.77 1018.58 1018.33 1018.04 1017.72 1017.37 1017.00 1016.62 1016.22 1015.81 1015.40 1015.00 1014.62 1014.27 1013.95 1013.66 1013.39 1013.16 1012.94 1012.75 1012.59 1012.46
1013.72 1013.77 1014.00 1014.36 1014.81 1015.31 1015.79 1016.22 1016.58 1016.87 1017.11 1017.31 1017.49 1017.69 1017.89 1018.10 1018.30 1018.48 1018.61 1018.68 1018.68 1018.61 1018.48 1018.28 1018.04 1017.74 1017.42 1017.06 1016.67 1016.27 1015.85 1015.44 1015.04 1014.65 1014.30 1013.97 1013.67 1013.39 1013.14 1012.89 1012.66 1012.45 1012.26
1013.60 1013.66 1013.90 1014.27 1014.74 1015.25 1015.76 1016.21 1016.59 1016.89 1017.11 1017.29 1017.44 1017.58 1017.72 1017.87 1018.03 1018.18 1018.30 1018.38 1018.42 1018.39 1018.32 1018.18 1017.99 1017.74 1017.45 1017.12 1016.75 1016.36 1015.95 1015.54 1015.14 1014.76 1014.41 1014.08 1013.78 1013.50 1013.23 1012.96 1012.70 1012.45 1012.20
1013.74 1013.81 1014.04 1014.40 1014.86 1015.35 1015.84 1016.28 1016.65 1016.93 1017.13 1017.26 1017.36 1017.45 1017.53 1017.63 1017.74 1017.85 1017.95 1018.04 1018.10 1018.12 1018.10 1018.02 1017.88 1017.69 1017.45 1017.15 1016.81 1016.44 1016.06 1015.66 1015.28 1014.91 1014.57 1014.25 1013.95 1013.66 1013.38 1013.10 1012.82 1012.54 1012.26
1014.06 1014.13 1014.33 1014.66 1015.06 1015.51 1015.95 1016.34 1016.66 1016.90 1017.05 1017.14 1017.20 1017.23 1017.26 1017.31 1017.38 1017.46 1017.56 1017.65 1017.73 1017.78 1017.80 1017.77 1017.69 1017.55 1017.36 1017.11 1016.81 1016.48 1016.12 1015.75 1015.39 1015.04 1014.71 1014.40 1014.11 1013.83 1013.56 1013.28 1012.99 1012.70 1012.40
1014.43 1014.48 1014.65 1014.91 1015.25 1015.61 1015.97 1016.28 1016.53 1016.70 1016.80 1016.85 1016.86 1016.85 1016.85 1016.87 1016.92 1016.98 1017.07 1017.17 1017.26 1017.34 1017.40 1017.41 1017.38 1017.29 1017.14 1016.94 1016.69 1016.40 1016.09 1015.75 1015.42 1015.10 1014.80 1014.52 1014.25 1013.98 1013.72 1013.46 1013.18 1012.89 1012.60
1014.73 1014.75 1014.87 1015.06 1015.30 1015.56 1015.81 1016.02 1016.18 1016.28 1016.32 1016.32 1016.30 1016.28 1016.27 1016.28 1016.32 1016.39 1016.48 1016.58 1016.70 1016.79 1016.87 1016.92 1016.93 1016.88 1016.78 1016.63 1016.43 1016.19 1015.92 1015.64 1015.36 1015.08 1014.82 1014.57 1014.33 1014.10 1013.86 1013.63 1013.38 1013.12 1012.86
1014.88 1014.88 1014.93 1015.04 1015.17 1015.31 1015.44 1015.54 1015.60 1015.62 1015.61 1015.58 1015.55 1015.52 1015.52 1015.55 1015.60 1015.69 1015.79 1015.91 1016.03 1016.15 1016.25 1016.32 1016.35 1016.34 1016.29 1016.19 1016.04 1015.86 1015.65 1015.43 1015.20 1014.97 1014.76 1014.56 1014.37 1014.18 1013.99 1013.80 1013.60 1013.38 1013.17
1014.87 1014.83 1014.82 1014.84 1014.87 1014.89 1014.90 1014.89 1014.85 1014.80 1014.74 1014.69 1014.65 1014.64 1014.66 1014.72 1014.80 1014.91 1015.04 1015.18 1015.31 1015.44 1015.55 1015.64 1015.70 1015.72 1015.71 1015.66 1015.57 1015.45 1015.31 1015.15 1014.99 1014.82 1014.67 1014.53 1014.40 1014.26 1014.13 1014.00 1013.85 1013.70 1013.55
1014.76 1014.69 1014.62 1014.55 1014.48 1014.39 1014.28 1014.17 1014.04 1013.93 1013.83 1013.76 1013.73 1013.74 1013.79 1013.88 1014.00 1014.14 1014.28 1014.43 1014.58 1014.72 1014.84 1014.94 1015.02 1015.08 1015.11 1015.11 1015.08 1015.03 1014.96 1014.87 1014.78 1014.69 1014.60 1014.52 1014.45 1014.38 1014.31 1014.24 1014.16 1014.07 1013.99
1014.63 1014.53 1014.41 1014.27 1014.11 1013.92 1013.72 1013.51 1013.31 1013.14 1013.01 1012.92 1012.90 1012.93 1013.00 1013.12 1013.26 1013.42 1013.58 1013.74 1013.89 1014.03 1014.16 1014.27 1014.38 1014.47 1014.54 1014.60 1014.63 1014.65 1014.65 1014.63 1014.61 1014.58 1014.56 1014.54 1014.52 1014.52 1014.51 1014.50 1014.50 1014.48 1014.47
Thickness
5738 5737 5737 5737 5737 5737 5737 5737 5736 5736 5736 5736 5736 5735 5735 5734 5734 5733 5732 5732 5731 5730 5728 5727 5726 5724 5723 5721 5720 5718 5717 5715 5714 5713 5711 5710 5709 5708 5707 5705 5704 5703 5702
5738 5737 5737 5737 5737 5737 5737 5736 5736 5736 5735 5735 5735 5735 5735 5734 5734 5733 5732 5732 5731 5730 5729 5728 5726 5725 5723 5721 5720 5719 5717 5716 5714 5713 5711 5710 5709 5707 5706 5705 5704 5703 5702
5738 5738 5738 5737 5737 5737 5736 5736 5736 5736 5735 5735 5735 5735 5734 5734 5734 5733 5732 5732 5731 5730 5729 5728 5727 5726 5724 5722 5721 5719 5718 5716 5715 5713 5712 5710 5708 5707 5706 5704 5703 5702 5701
5739 5738 5738 5738 5738 5737 5736 5736 5735 5735 5734 5734 5733 5734 5734 5733 5733 5733 5732 5732 5731 5730 5729 5729 5728 5726 5725 5723 5722 5720 5719 5717 5715 5714 5712 5710 5709 5707 5706 5704 5703 5702 5700
5739 5738 5738 5738 5738 5737 5736 5736 5735 5734 5733 5732 5732 5733 5733 5733 5733 5733 5732 5732 5731 5730 5729 5729 5728 5727 5726 5725 5723 5722 5720 5718 5717 5715 5713 5711 5709 5708 5706 5705 5703 5702 5700
5741 5740 5739 5738 5737 5736 5735 5735 5734 5733 5732 5732 5732 5731 5731 5731 5732 5732 5732 5731 5731 5730 5729 5728 5728 5727 5726 5725 5724 5723 5721 5719 5718 5715 5713 5712 5710 5708 5707 5705 5703 5702 5700
5742 5740 5740 5738 5737 5736 5735 5735 5733 5732 5730 5730 5728 5726 5728 5730 5730 5731 5731 5730 5730 5729 5728 5727 5726 5726 5726 5725 5724 5723 5722 5720 5718 5716 5714 5712 5711 5709 5707 5705 5703 5701 5700
5742 5741 5739 5738 5737 5736 5735 5734 5733 5731 5730 5730 5727 5722 5720 5722 5727 5729 5729 5728 5728 5728 5727 5726 5725 5725 5725 5724 5724 5723 5722 5720 5718 5716 5714 5713 5711 5709 5707 5705 5703 5701 5699
5742 5741 5740 5738 5737 5736 5734 5734 5733 5732 5729 5729 5729 5724 5718 5716 5719 5724 5725 5726 5726 5725 5725 5724 5724 5723 5723 5722 5722 5722 5721 5719 5718 5716 5715 5713 5711 5709 5707 5705 5703 5701 5699
5742 5741 5739 5738 5737 5735 5735 5734 5734 5733 5730 5727 5726 5727 5726 5724 5718 5716 5720 5722 5723 5722 5722 5722 5722 5721 5721 5721 5720 5720 5719 5718 5716 5715 5714 5712 5710 5709 5707 5705 5703 5700 5698
5741 5741 5739 5738 5737 5736 5735 5734 5733 5732 5731 5729 5726 5725 5724 5722 5721 5716 5714 5716 5718 5719 5719 5719 5719 5719 5719 5718 5718 5717 5716 5715 5714 5713 5711 5710 5709 5707 5705 5703 5701 5699 5697
5741 5741 5740 5738 5737 5735 5734 5733 5733 5731 5730 5729 5727 5726 5724 5721 5719 5717 5714 5714 5714 5715 5717 5717 5716 5716 5716 5715 5715 5714 5713 5712 5711 5710 5709 5708 5706 5705 5703 5702 5700 5698 5696
5741 5740 5740 5738 5736 5735 5734 5733 5732 5731 5730 5728 5727 5726 5725 5724 5723 5719 5716 5713 5712 5712 5713 5713 5713 5713 5712 5712 5711 5711 5710 5709 5707 5706 5705 5704 5703 5702 5700 5699 5697 5696 5694
5742 5741 5739 5738 5736 5734 5733 5731 5730 5729 5729 5727 5727 5725 5724 5723 5722 5720 5717 5713 5709 5708 5708 5708 5709 5708 5708 5707 5707 5706 5705 5705 5704 5703 5702 5701 5699 5698 5696 5695 5693 5692 5690
5742 5741 5739 5737 5735 5733 5731 5730 5728 5727 5726 5725 5724 5723 5722 5721 5720 5718 5717 5715 5710 5705 5704 5705 5704 5704 5703 5702 5701 5701 5700 5700 5699 5698 5697 5696 5695 5693 5691 5690 5688 5687 5685
5742 5740 5738 5736 5733 5731 5730 5728 5726 5725 5723 5722 5721 5720 5719 5718 5716 5715 5714 5712 5710 5706 5702 5702 5700 5698 5697 5696 5695 5695 5694 5694 5693 5693 5692 5690 5689 5688 5686 5684 5682 5681 5679
5740 5738 5736 5734 5732 5729 5727 5725 5723 5722 5720 5719 5718 5717 5716 5715 5713 5712 5710 5708 5706 5704 5699 5696 5694 5693 5691 5689 5689 5689 5688 5688 5687 5686 5686 5684 5683 5681 5679 5678 5676 5675 5673
5739 5736 5734 5732 5730 5727 5725 5723 5721 5719 5717 5716 5715 5714 5712 5711 5709 5707 5705 5703 5701 5700 5697 5692 5689 5687 5684 5683 5682 5682 5681 5681 5680 5679 5678 5677 5675 5674 5672 5671 5669 5668 5666
5736 5734 5732 5729 5727 5724 5722 5720 5718 5717 5715 5713 5712 5711 5709 5707 5705 5703 5701 5699 5697 5696 5693 5689 5685 5681 5678 5676 5675 5674 5673 5672 5672 5671 5670 5668 5667 5666 5664 5663 5662 5660 5659
5734 5731 5728 5726 5724 5721 5719 5717 5715 5713 5711 5709 5708 5706 5705 5703 5701 5699 5697 5695 5692 5690 5687 5684 5680 5676 5673 5670 5669 5667 5665 5664 5663 5662 5661 5660 5658 5657 5656 5655 5654 5652 5651
5731 5727 5724 5722 5719 5717 5715 5713 5711 5709 5706 5704 5702 5701 5700 5698 5697 5695 5693 5691 5688 5685 5681 5677 5674 5670 5667 5665 5663 5661 5659 5657 5655 5653 5653 5651 5650 5649 5647 5646 5645 5643 5642
5726 5723 5720 5717 5715 5713 5711 5709 5707 5704 5702 5699 5696 5695 5694 5693 5691 5689 5688 5686 5684 5681 5677 5673 5669 5666 5663 5661 5657 5655 5652 5650 5648 5645 5644 5643 5641 5640 5639 5637 5636 5634 5633
5721 5718 5715 5712 5710 5708 5705 5703 5701 5698 5696 5694 5692 5690 5689 5687 5685 5683 5681 5679 5677 5674 5673 5669 5665 5662 5659 5656 5652 5649 5646 5644 5641 5638 5636 5635 5633 5632 5630 5629 5627 5625 5624
5716 5712 5710 5707 5705 5703 5700 5698 5695 5692 5690 5688 5686 5684 5682 5681 5679 5677 5674 5671 5669 5666 5664 5663 5660 5657 5654 5650 5647 5644 5640 5636 5633 5630 5628 5627 5625 5623 5622 5621 5619 5617 5615
5711 5707 5704 5702 5699 5697 5694 5692 5689 5686 5683 5681 5679 5677 5676 5674 5672 5670 5668 5664 5661 5658 5656 5654 5652 5649 5646 5643 5639 5636 5632 5629 5626 5623 5620 5618 5617 5615 5614 5613 5610 5608 5605
5706 5701 5698 5696 5693 5690 5687 5685 5683 5680 5677 5674 5672 5669 5667 5665 5663 5661 5659 5657 5653 5650 5648 5645 5643 5640 5637 5634 5631 5629 5626 5622 5619 5616 5613 5610 5609 5607 5606 5605 5601 5599 5596